SCP
0 0 1 0 1 0 1 1 1 0 0 1 0 0 0 0 -0 -0 -0 -0 0 -0 -0 -0 -0 -0 -0 0 0 0 0 0
0 0 0 0 -0 -0 0 -0 -0 1 -0 1 0 0 0 0 0 -0 -0 -0 -0 -0 -0 -0 0 0 0 0 0 0 0 0
0 0 0 0 -0 0 0 0 0 0 0 0 0 1 0 0 0 0 0 -0 -0 -0 0 0 0 0 0 0 -0 0 0 0
0 0 0 0 0 1 1 0 1 2 1 1 1 1 0 0 0 0 -0 -0 -0 -0 0 0 0 0 0 0 0 0 0 0
0 0 0 0 0 0 0 0 0 1 1 1 1 1 0 0 0 0 0 -0 0 0 0 0 0 0 0 0 0 0 0 0
0 0 0 0 0 0 0 0 0 1 1 0 0 0 0 0 0 0 0 0 0 0 0 0 0 0 0 0 0 0 0 0
-0 0 0 0 0 0 0 0 0 0 0 0 0 0 0 0 0 0 0 0 0 0 0 0 0 0 0 0 0 0 0 0
0 0 -0 0 0 0 0 0 0 0 0 0 0 0 0 0 0 0 0 0 0 0 0 0 0 0 0 0 0 0 0 0
0 0 0 0 0 0 0 0 0 0 0 0 0 0 0 0 0 0 0 0 0 0 0 0 0 0 0 0 0 0 0 0
0 0 0 -0 -0 0 0 0 0 0 0 0 0 0 0 0 0 0 0 0 0 0 0 0 0 0 0 0 0 0 0 0
0 0 -0 0 -0 0 0 0 0 0 0 0 0 0 0 0 0 0 0 0 0 0 0 0 0 0 0 0 0 0 0 0
0 0 -0 0 0 0 0 0 0 0 0 0 0 0 0 0 0 0 0 0 0 0 0 0 0 0 0 0 0 0 0 0
0 0 -0 0 0 0 0 0 0 0 0 0 0 0 0 0 0 0 0 0 0 0 0 0 0 0 0 0 0 0 0 0
0 -0 0 0 0 0 0 0 0 0 0 0 0 0 0 0 0 0 0 0 0 0 0 0 0 0 0 0 0 0 0 0
0 -0 0 0 0 0 0 0 0 0 0 0 0 0 0 0 0 0 0 0 0 0 0 0 0 0 0 0 0 0 0 0
-0 -0 -0 0 0 0 0 0 0 0 0 0 0 0 0 0 0 0 0 0 0 0 0 0 0 0 0 0 0 0 0 0
-0 -0 -0 -0 -0 0 0 0 0 0 0 0 0 0 0 0 0 0 0 0 0 0 0 0 0 0 0 0 0 0 0 0
-0 -0 -0 -0 -0 -0 -0 -0 0 0 0 0 0 0 0 0 -0 -0 -0 -0 0 0 0 0 0 0 0 0 0 0 0 0
-0 -0 -0 -0 -0 -0 -0 -0 -0 -0 -0 0 0 0 0 0 -0 -0 0 0 0 0 0 0 0 0 0 0 0 0 0 0
-0 -0 -0 -0 -0 -0 -0 -0 0 0 -0 0 0 0 0 -0 -0 -0 -0 -0 -0 0 0 0 0 0 0 0 0 0 0 0
Wind_Speed_500mb
36 41 39 52 64 70 83 83 79 74 67 62 64 66 70 68 65 61 58 56 55 51 51 49 44 39 37 35 35 33 35 37
25 58 66 65 72 69 78 82 81 75 66 65 70 73 73 69 62 59 57 52 49 50 51 46 40 36 31 30 31 31 30 31
28 44 48 59 73 69 71 74 78 69 65 67 72 78 73 63 65 61 54 50 50 52 52 45 39 33 29 24 24 27 27 29
34 40 59 72 76 77 76 74 74 72 64 64 75 79 71 69 68 61 54 48 48 50 47 43 37 34 29 23 20 22 20 25
30 28 49 70 84 71 79 92 78 78 77 70 69 78 74 76 73 62 53 47 47 46 46 39 32 26 23 22 19 18 18 22
39 41 39 50 62 81 86 90 93 84 83 73 70 82 82 82 77 66 58 52 48 48 44 38 33 23 21 19 19 16 17 21
30 30 37 51 59 65 92 101 99 91 91 75 77 85 87 85 77 68 59 52 47 47 40 40 30 27 23 20 16 14 16 19
28 34 39 45 68 96 92 96 109 109 89 88 80 89 88 84 76 68 60 54 49 39 37 34 29 24 25 21 16 14 14 16
18 21 28 31 57 79 128 111 127 104 92 84 78 97 91 86 77 70 63 55 45 39 38 36 29 26 24 22 17 14 16 12
15 14 17 15 61 88 115 119 116 91 94 84 80 96 93 85 78 73 65 56 51 43 41 39 31 24 23 22 20 19 17 18
15 12 10 24 48 68 99 102 94 93 87 79 72 86 87 83 80 75 68 65 56 44 44 36 32 30 27 26 25 22 19 19
15 19 17 24 55 62 74 78 81 80 75 76 69 80 85 84 81 73 69 63 57 45 43 37 34 30 30 32 30 27 25 24
24 29 25 31 50 74 80 75 74 68 65 72 67 67 74 76 68 63 60 60 51 48 45 40 41 38 35 36 35 36 34 33
24 22 38 41 48 61 66 68 78 67 67 70 71 74 68 61 58 60 58 56 48 48 50 49 45 43 43 40 31 42 47 47
26 19 44 48 59 68 72 67 68 70 66 73 76 78 79 68 65 57 53 52 52 56 55 51 50 49 51 36 21 24 31 51
26 22 42 59 57 61 76 82 81 73 73 78 81 78 80 75 53 51 59 54 62 58 57 58 56 55 58 61 57 38 23 16
34 34 44 64 60 64 81 79 77 71 72 78 79 71 74 68 74 69 61 64 66 65 63 63 62 66 66 69 68 68 64 51
44 44 49 69 73 69 76 85 79 76 74 78 83 82 84 76 74 72 72 68 62 63 61 60 66 72 74 76 79 74 72 65
51 54 57 60 67 64 69 72 86 88 83 79 79 74 79 76 76 75 76 72 69 65 60 62 64 67 74 79 80 85 83 76
55 57 62 70 71 71 71 72 83 88 84 83 86 84 84 91 81 74 74 74 73 73 70 70 71 75 77 80 83 89 88 83
Wind_Direction_500mb
236 238 170 195 210 200 187 185 183 181 177 175 181 173 169 168 168 168 159 154 150 146 141 134 128 119 116 111 110 110 109 110
205 195 195 235 197 201 193 188 186 178 176 175 173 171 168 169 170 168 160 155 151 149 144 139 131 124 116 112 108 106 105 111
229 199 209 200 201 197 192 193 184 176 169 173 170 170 169 170 169 169 161 154 150 146 148 143 138 126 118 109 110 107 111 115
248 211 200 201 200 203 199 193 179 174 173 172 172 174 173 169 169 168 163 155 150 150 150 150 145 138 131 128 122 109 116 119
237 225 213 208 201 199 190 187 181 182 172 174 178 178 171 169 169 168 163 163 156 156 158 159 154 147 140 139 132 129 121 122
237 240 222 218 217 212 204 195 191 179 179 183 179 180 175 173 171 171 173 171 171 166 165 164 157 151 150 157 146 136 132 134
233 232 229 232 231 212 205 200 207 196 179 179 176 183 177 175 173 175 176 174 176 167 168 167 161 160 162 164 154 145 144 144
244 258 256 256 247 226 196 212 200 190 182 177 177 185 178 175 175 175 179 177 180 175 177 169 168 167 167 169 167 161 160 155
252 258 260 272 239 227 204 193 191 185 179 180 181 186 178 178 177 180 185 181 183 183 178 176 179 175 178 175 176 174 169 171
242 247 273 215 130 161 168 180 178 182 183 180 187 184 182 180 183 185 187 186 188 188 190 184 187 186 189 188 184 183 188 186
224 225 246 179 150 149 162 172 175 178 183 181 183 186 184 186 188 189 190 190 189 191 195 197 196 193 193 197 194 198 201 198
202 215 195 175 156 157 157 168 179 184 178 182 185 188 187 190 192 193 193 191 191 197 201 200 206 204 199 202 206 210 211 208
207 205 196 190 183 165 165 173 175 172 183 184 184 185 194 196 197 199 204 199 202 204 203 213 207 201 203 207 214 220 223 225
203 218 213 202 189 185 182 173 172 176 183 189 194 191 191 198 211 207 208 207 211 213 215 216 216 213 209 213 219 231 234 234
200 210 203 199 191 184 175 171 178 181 192 193 191 192 195 203 210 210 213 219 225 228 226 226 227 221 225 221 211 222 234 242
206 185 201 195 192 189 182 178 182 195 193 194 192 190 199 204 205 213 219 224 233 235 236 234 234 236 234 235 235 245 230 239
199 199 194 191 192 193 188 184 190 189 189 187 189 193 199 216 211 217 229 235 237 237 239 237 241 244 246 243 242 244 250 248
198 198 202 199 195 197 196 194 190 190 186 193 201 210 224 213 215 219 227 236 241 246 249 250 253 252 254 250 250 250 248 250
196 198 201 202 198 201 205 207 200 201 201 206 208 213 209 214 220 224 226 235 242 246 253 258 260 262 259 254 254 255 255 262
197 196 198 200 205 209 213 211 210 212 217 221 222 221 226 220 224 233 238 243 247 249 254 260 264 266 266 263 260 263 256 257
Wind_Speed_850mb
36 41 39 52 64 70 83 83 79 74 67 62 64 66 70 68 65 61 58 56 55 51 51 49 44 39 37 35 35 33 35 37
25 58 66 65 72 69 78 82 81 75 66 65 70 73 73 69 62 59 57 52 49 50 51 46 40 36 31 30 31 31 30 31
28 44 48 59 73 69 71 74 78 69 65 67 72 78 73 63 65 61 54 50 50 52 52 45 39 33 29 24 24 27 27 29
34 40 59 72 76 77 76 74 74 72 64 64 75 79 71 69 68 61 54 48 48 50 47 43 37 34 29 23 20 22 20 25
30 28 49 70 84 71 79 92 78 78 77 70 69 78 74 76 73 62 53 47 47 46 46 39 32 26 23 22 19 18 18 22
39 41 39 50 62 81 86 90 93 84 83 73 70 82 82 82 77 66 58 52 48 48 44 38 33 23 21 19 19 16 17 21
30 30 37 51 59 65 92 101 99 91 91 75 77 85 87 85 77 68 59 52 47 47 40 40 30 27 23 20 16 14 16 19
28 34 39 45 68 96 92 96 109 109 89 88 80 89 88 84 76 68 60 54 49 39 37 34 29 24 25 21 16 14 14 16
18 21 28 31 57 79 128 111 127 104 92 84 78 97 91 86 77 70 63 55 45 39 38 36 29 26 24 22 17 14 16 12
15 14 17 15 61 88 115 119 116 91 94 84 80 96 93 85 78 73 65 56 51 43 41 39 31 24 23 22 20 19 17 18
15 12 10 24 48 68 99 102 94 93 87 79 72 86 87 83 80 75 68 65 56 44 44 36 32 30 27 26 25 22 19 19
15 19 17 24 55 62 74 78 81 80 75 76 69 80 85 84 81 73 69 63 57 45 43 37 34 30 30 32 30 27 25 24
24 29 25 31 50 74 80 75 74 68 65 72 67 67 74 76 68 63 60 60 51 48 45 40 41 38 35 36 35 36 34 33
24 22 38 41 48 61 66 68 78 67 67 70 71 74 68 61 58 60 58 56 48 48 50 49 45 43 43 40 31 42 47 47
26 19 44 48 59 68 72 67 68 70 66 73 76 78 79 68 65 57 53 52 52 56 55 51 50 49 51 36 21 24 31 51
26 22 42 59 57 61 76 82 81 73 73 78 81 78 80 75 53 51 59 54 62 58 57 58 56 55 58 61 57 38 23 16
34 34 44 64 60 64 81 79 77 71 72 78 79 71 74 68 74 69 61 64 66 65 63 63 62 66 66 69 68 68 64 51
44 44 49 69 73 69 76 85 79 76 74 78 83 82 84 76 74 72 72 68 62 63 61 60 66 72 74 76 79 74 72 65
51 54 57 60 67 64 69 72 86 88 83 79 79 74 79 76 76 75 76 72 69 65 60 62 64 67 74 79 80 85 83 76
55 57 62 70 71 71 71 72 83 88 84 83 86 84 84 91 81 74 74 74 73 73 70 70 71 75 77 80 83 89 88 83
Wind_Direction_850mb
236 238 170 195 210 200 187 185 183 181 177 175 181 173 169 168 168 168 159 154 150 146 141 134 128 119 116 111 110 110 109 110
205 195 195 235 197 201 193 188 186 178 176 175 173 171 168 169 170 168 160 155 151 149 144 139 131 124 116 112 108 106 105 111
229 199 209 200 201 197 192 193 184 176 169 173 170 170 169 170 169 169 161 154 150 146 148 143 138 126 118 109 110 107 111 115
248 211 200 201 200 203 199 193 179 174 173 172 172 174 173 169 169 168 163 155 150 150 150 150 145 138 131 128 122 109 116 119
237 225 213 208 201 199 190 187 181 182 172 174 178 178 171 169 169 168 163 163 156 156 158 159 154 147 140 139 132 129 121 122
237 240 222 218 217 212 204 195 191 179 179 183 179 180 175 173 171 171 173 171 171 166 165 164 157 151 150 157 146 136 132 134
233 232 229 232 231 212 205 200 207 196 179 179 176 183 177 175 173 175 176 174 176 167 168 167 161 160 162 164 154 145 144 144
244 258 256 256 247 226 196 212 200 190 182 177 177 185 178 175 175 175 179 177 180 175 177 169 168 167 167 169 167 161 160 155
252 258 260 272 239 227 204 193 191 185 179 180 181 186 178 178 177 180 185 181 183 183 178 176 179 175 178 175 176 174 169 171
242 247 273 215 130 161 168 180 178 182 183 180 187 184 182 180 183 185 187 186 188 188 190 184 187 186 189 188 184 183 188 186
224 225 246 179 150 149 162 172 175 178 183 181 183 186 184 186 188 189 190 190 189 191 195 197 196 193 193 197 194 198 201 198
202 215 195 175 156 157 157 168 179 184 178 182 185 188 187 190 192 193 193 191 191 197 201 200 206 204 199 202 206 210 211 208
207 205 196 190 183 165 165 173 175 172 183 184 184 185 194 196 197 199 204 199 202 204 203 213 207 201 203 207 214 220 223 225
203 218 213 202 189 185 182 173 172 176 183 189 194 191 191 198 211 207 208 207 211 213 215 216 216 213 209 213 219 231 234 234
200 210 203 199 191 184 175 171 178 181 192 193 191 192 195 203 210 210 213 219 225 228 226 226 227 221 225 221 211 222 234 242
206 185 201 195 192 189 182 178 182 195 193 194 192 190 199 204 205 213 219 224 233 235 236 234 234 236 234 235 235 245 230 239
199 199 194 191 192 193 188 184 190 189 189 187 189 193 199 216 211 217 229 235 237 237 239 237 241 244 246 243 242 244 250 248
198 198 202 199 195 197 196 194 190 190 186 193 201 210 224 213 215 219 227 236 241 246 249 250 253 252 254 250 250 250 248 250
196 198 201 202 198 201 205 207 200 201 201 206 208 213 209 214 220 224 226 235 242 246 253 258 260 262 259 254 254 255 255 262
197 196 198 200 205 209 213 211 210 212 217 221 222 221 226 220 224 233 238 243 247 249 254 260 264 266 266 263 260 263 256 257